Location: Fosso Corella
(43.9167°N, 11.5667°E)
Time: 02:51:44
(UTC+00:00)

Cosmos 2237 - Pass Details

Date: 07 June 2020
Orbit: 844 x 858 km, 70.8° (Epoch: 06 July)

Event Time Altitude Azimuth Distance (km) Brightness Sun altitude
Exits shadow 01:54:31 18° 201° (SSW) 1,966 5.5 -13.7°
Maximum altitude 01:58:50 85° 115° (ESE) 863 4.2 -13.2°
Drops below altitude 10° 02:04:36 10° 26° (NNE) 2,497 8.0 -12.5°
Sets 02:07:04 0° 26° (NNE) 3,438 9.1 -12.3°
